timestamp,surface_pressure_avg,surface_temp_avg,battery_voltage,lat,long
2020-10-15 00:09:01+00:00,319.5596,13.09,12.73,47.84626,-54.09684
2020-10-15 00:19:01+00:00,313.3047,13.09,12.73,47.84626,-54.09684
2020-10-15 00:29:01+00:00,301.3997,13.1,12.73,47.84626,-54.09684
2020-10-15 00:39:01+00:00,293.483,13.1,12.73,47.84626,-54.09684
2020-10-15 00:49:01+00:00,286.2581,13.1,12.73,47.84626,-54.09684
2020-10-15 00:59:01+00:00,278.4248,13.08,12.73,47.84626,-54.09684
2020-10-15 01:09:01+00:00,267.6114,13.0,12.73,47.84626,-54.09684
2020-10-15 01:19:01+00:00,259.0981,13.0,12.73,47.84626,-54.09684
2020-10-15 01:29:01+00:00,249.1364,13.0,12.73,47.84626,-54.09684
2020-10-15 01:39:01+00:00,237.8714,13.0,12.73,47.84626,-54.09684
2020-10-15 01:49:01+00:00,228.2597,13.0,12.73,47.84626,-54.09684
2020-10-15 01:59:01+00:00,221.8131,13.0,12.73,47.84626,-54.09684
2020-10-15 02:09:01+00:00,216.9098,12.98,12.73,47.84626,-54.09684
2020-10-15 02:19:01+00:00,211.7181,12.98,12.73,47.84626,-54.09684
2020-10-15 02:29:01+00:00,205.4648,12.97,12.73,47.84626,-54.09684
2020-10-15 02:39:01+00:00,200.0898,12.93,12.73,47.84626,-54.09684
2020-10-15 02:49:01+00:00,197.6914,12.9,12.73,47.84626,-54.09684
2020-10-15 02:59:01+00:00,194.0181,12.9,12.73,47.84626,-54.09684
2020-10-15 03:09:01+00:00,187.8648,12.9,12.73,47.84626,-54.09684
2020-10-15 03:19:01+00:00,183.0198,12.9,12.73,47.84626,-54.09684
2020-10-15 03:29:01+00:00,179.8482,12.9,12.73,47.84626,-54.09684
2020-10-15 03:39:01+00:00,179.0181,12.9,12.73,47.84626,-54.09684
2020-10-15 03:49:01+00:00,178.8932,12.9,12.73,47.84626,-54.09684
2020-10-15 03:59:01+00:00,177.8715,12.9,12.73,47.84626,-54.09684
2020-10-15 04:09:01+00:00,178.7698,12.9,12.73,47.84626,-54.09684
2020-10-15 04:19:01+00:00,179.8665,12.9,12.73,47.84626,-54.09684
2020-10-15 04:29:01+00:00,180.1082,12.9,12.73,47.84626,-54.09684
2020-10-15 04:39:01+00:00,181.2565,12.9,12.73,47.84626,-54.09684
2020-10-15 04:49:01+00:00,183.9498,12.9,12.73,47.84626,-54.09684
2020-10-15 04:59:01+00:00,185.7881,12.9,12.73,47.84626,-54.09684
2020-10-15 05:09:01+00:00,188.8815,12.9,12.73,47.84626,-54.09684
2020-10-15 05:19:01+00:00,194.1648,12.9,12.73,47.84626,-54.09684
2020-10-15 05:29:01+00:00,200.3414,12.9,12.73,47.84626,-54.09684
2020-10-15 05:39:01+00:00,207.5731,12.9,12.73,47.84626,-54.09684
2020-10-15 05:49:01+00:00,214.7997,12.9,12.73,47.84626,-54.09684
2020-10-15 05:59:01+00:00,219.7448,12.9,12.73,47.84626,-54.09684
2020-10-15 06:09:01+00:00,225.3914,12.9,12.73,47.84626,-54.09684
2020-10-15 06:19:01+00:00,230.8031,12.9,12.65,47.84626,-54.09684
2020-10-15 06:29:01+00:00,236.0331,12.9,12.65,47.84626,-54.09684
2020-10-15 06:39:01+00:00,241.2115,12.9,12.65,47.84626,-54.09684
2020-10-15 06:49:01+00:00,246.2498,12.9,12.65,47.84626,-54.09684
2020-10-15 06:59:01+00:00,253.833,12.9,12.65,47.84626,-54.09684
2020-10-15 07:09:01+00:00,263.1631,12.9,12.65,47.84626,-54.09684
2020-10-15 07:19:01+00:00,270.8714,12.9,12.65,47.84626,-54.09684
2020-10-15 07:29:01+00:00,276.4431,12.9,12.65,47.84626,-54.09684
2020-10-15 07:39:01+00:00,284.8931,12.95,12.65,47.84626,-54.09684
2020-10-15 07:49:01+00:00,293.788,12.96,12.65,47.84626,-54.09684
2020-10-15 07:59:01+00:00,300.2914,12.96,12.65,47.84626,-54.09684
2020-10-15 08:09:01+00:00,305.1997,12.95,12.65,47.84626,-54.09684
2020-10-15 08:19:01+00:00,315.173,12.95,12.65,47.84626,-54.09684
2020-10-15 08:29:01+00:00,321.6947,12.95,12.65,47.84626,-54.09684
2020-10-15 08:39:01+00:00,327.7147,12.94,12.65,47.84626,-54.09684
2020-10-15 08:49:01+00:00,337.0563,12.92,12.65,47.84626,-54.09684
2020-10-15 08:59:01+00:00,343.2496,12.9,12.65,47.84626,-54.09684
2020-10-15 09:09:01+00:00,346.1097,12.9,12.65,47.84626,-54.09684
2020-10-15 09:19:01+00:00,349.0964,12.93,12.65,47.84626,-54.09684
2020-10-15 09:29:01+00:00,352.423,12.94,12.65,47.84626,-54.09684
2020-10-15 09:39:01+00:00,354.0546,12.97,12.65,47.84626,-54.09684
2020-10-15 09:49:01+00:00,353.4012,12.98,12.65,47.84626,-54.09684
2020-10-15 09:59:01+00:00,355.2363,12.99,12.65,47.84626,-54.09684
2020-10-15 10:09:01+00:00,356.1579,12.99,12.65,47.84626,-54.09684
2020-10-15 10:19:01+00:00,354.3496,13.0,12.65,47.84626,-54.09684
2020-10-15 10:29:01+00:00,354.9612,13.0,12.65,47.84626,-54.09684
2020-10-15 10:39:01+00:00,355.9495,13.0,12.65,47.84626,-54.09684
2020-10-15 10:49:01+00:00,353.6479,13.0,12.65,47.84626,-54.09684
2020-10-15 10:59:01+00:00,351.5729,13.0,12.65,47.84626,-54.09684
2020-10-15 11:09:01+00:00,351.5796,13.0,12.65,47.84626,-54.09684
2020-10-15 11:19:01+00:00,349.7579,13.0,12.65,47.84626,-54.09684
2020-10-15 11:29:01+00:00,342.7929,13.0,12.65,47.84626,-54.09684
2020-10-15 11:39:01+00:00,338.0946,13.0,12.65,47.84626,-54.09684
2020-10-15 11:49:01+00:00,334.2646,13.0,12.65,47.84626,-54.09684
2020-10-15 11:59:01+00:00,331.468,13.0,12.65,47.84626,-54.09684
2020-10-15 12:09:01+00:00,326.183,13.0,12.65,47.84626,-54.09684
2020-10-15 12:19:01+00:00,316.9863,13.0,12.65,47.84626,-54.09684
2020-10-15 12:29:01+00:00,309.6948,13.0,12.65,47.84626,-54.09684
2020-10-15 12:39:01+00:00,301.8963,13.0,12.65,47.84626,-54.09684
2020-10-15 12:49:01+00:00,297.9113,13.0,12.65,47.84626,-54.09684
2020-10-15 12:59:01+00:00,288.2464,13.0,12.65,47.84626,-54.09684
2020-10-15 13:09:01+00:00,276.7164,13.0,12.65,47.84626,-54.09684
2020-10-15 13:19:01+00:00,265.0998,12.99,12.65,47.84626,-54.09684
2020-10-15 13:29:01+00:00,258.1848,12.99,12.65,47.84626,-54.09684
2020-10-15 13:39:01+00:00,249.3297,12.99,12.65,47.84626,-54.09684
2020-10-15 13:49:01+00:00,237.2897,12.98,12.65,47.84626,-54.09684
2020-10-15 13:59:01+00:00,227.8331,12.98,12.65,47.84626,-54.09684
2020-10-15 14:09:01+00:00,219.9981,12.99,12.65,47.84626,-54.09684
2020-10-15 14:19:01+00:00,210.7531,12.98,12.73,47.84626,-54.09684
2020-10-15 14:29:01+00:00,200.6914,12.98,12.73,47.84626,-54.09684
2020-10-15 14:39:01+00:00,193.6681,12.99,12.73,47.84626,-54.09684
2020-10-15 14:49:01+00:00,188.0465,12.99,12.73,47.84626,-54.09684
2020-10-15 14:59:01+00:00,182.7248,12.99,12.73,47.84626,-54.09684
2020-10-15 15:09:01+00:00,178.9348,13.0,12.73,47.84626,-54.09684
2020-10-15 15:19:01+00:00,178.5765,13.0,12.73,47.84626,-54.09684
2020-10-15 15:29:01+00:00,177.4681,13.0,12.73,47.84626,-54.09684
2020-10-15 15:39:01+00:00,173.7065,12.99,12.73,47.84626,-54.09684
2020-10-15 15:49:01+00:00,171.3898,12.98,12.73,47.84626,-54.09684
2020-10-15 15:59:01+00:00,171.7065,12.99,12.73,47.84626,-54.09684
2020-10-15 16:09:01+00:00,172.0081,12.98,12.73,47.84626,-54.09684
2020-10-15 16:19:01+00:00,170.3898,12.98,12.81,47.84626,-54.09684
2020-10-15 16:29:01+00:00,168.0598,12.99,12.81,47.84626,-54.09684
2020-10-15 16:39:01+00:00,168.5132,12.99,12.81,47.84626,-54.09684
2020-10-15 16:49:01+00:00,170.2265,13.0,12.81,47.84626,-54.09684
2020-10-15 16:59:01+00:00,169.5398,13.0,12.81,47.84626,-54.09684
2020-10-15 17:09:01+00:00,172.7798,13.0,12.81,47.84626,-54.09684
2020-10-15 17:19:01+00:00,179.0364,13.0,12.89,47.84626,-54.09684
2020-10-15 17:29:01+00:00,182.2715,13.0,12.89,47.84626,-54.09684
2020-10-15 17:39:01+00:00,185.3098,13.0,12.89,47.84626,-54.09684
2020-10-15 17:49:01+00:00,189.2931,13.0,12.89,47.84626,-54.09684
2020-10-15 17:59:01+00:00,193.6381,12.99,12.89,47.84626,-54.09684
2020-10-15 18:09:01+00:00,199.0648,12.98,12.89,47.84626,-54.09684
2020-10-15 18:19:01+00:00,203.4247,12.98,13.05,47.84626,-54.09684
2020-10-15 18:29:01+00:00,209.7515,12.96,13.05,47.84626,-54.09684
2020-10-15 18:39:01+00:00,220.4498,12.96,13.05,47.84626,-54.09684
2020-10-15 18:49:01+00:00,226.6297,12.96,13.05,47.84626,-54.09684
2020-10-15 18:59:01+00:00,228.8298,12.95,13.05,47.84626,-54.09684
2020-10-15 19:09:01+00:00,235.2981,12.95,13.05,47.84626,-54.09684
2020-10-15 19:19:01+00:00,241.8831,12.94,13.05,47.84626,-54.09684
2020-10-15 19:29:01+00:00,242.6381,12.93,13.05,47.84626,-54.09684
2020-10-15 19:39:01+00:00,247.4114,12.92,13.05,47.84626,-54.09684
2020-10-15 19:49:01+00:00,257.578,12.9,13.05,47.84626,-54.09684
2020-10-15 19:59:01+00:00,262.5097,12.9,13.05,47.84626,-54.09684
2020-10-15 20:09:01+00:00,267.2931,12.9,13.05,47.84626,-54.09684
2020-10-15 20:19:01+00:00,279.5814,12.9,12.89,47.84626,-54.09684
2020-10-15 20:29:01+00:00,290.403,12.9,12.89,47.84626,-54.09684
2020-10-15 20:39:01+00:00,294.5114,12.9,12.89,47.84626,-54.09684
2020-10-15 20:49:01+00:00,302.3298,12.9,12.89,47.84626,-54.09684
2020-10-15 20:59:01+00:00,315.6929,12.9,12.89,47.84626,-54.09684
2020-10-15 21:09:01+00:00,325.4813,12.9,12.89,47.84626,-54.09684
2020-10-15 21:19:01+00:00,329.86300000000006,12.9,12.73,47.84626,-54.09684
2020-10-15 21:29:01+00:00,340.0963,12.9,12.73,47.84626,-54.09684
2020-10-15 21:39:01+00:00,348.3514,12.9,12.73,47.84626,-54.09684
2020-10-15 21:49:01+00:00,351.9213,12.92,12.73,47.84626,-54.09684
2020-10-15 21:59:01+00:00,357.0062,12.91,12.73,47.84626,-54.09684
2020-10-15 22:09:01+00:00,363.0096,12.9,12.73,47.84626,-54.09684
2020-10-15 22:19:01+00:00,367.3996,12.92,12.73,47.84626,-54.09684
2020-10-15 22:29:01+00:00,368.1996,12.92,12.73,47.84626,-54.09684
2020-10-15 22:39:01+00:00,369.6446,12.91,12.73,47.84626,-54.09684
2020-10-15 22:49:01+00:00,371.9079,12.93,12.73,47.84626,-54.09684
2020-10-15 22:59:01+00:00,369.4196,12.93,12.73,47.84626,-54.09684
2020-10-15 23:09:01+00:00,369.2397,12.92,12.73,47.84626,-54.09684
2020-10-15 23:19:01+00:00,368.1246,12.93,12.65,47.84626,-54.09684
2020-10-15 23:29:01+00:00,368.1546,12.93,12.65,47.84626,-54.09684
2020-10-15 23:39:01+00:00,365.128,12.9,12.65,47.84626,-54.09684
2020-10-15 23:49:01+00:00,361.7812,12.9,12.65,47.84626,-54.09684
2020-10-15 23:59:01+00:00,360.8846,12.9,12.65,47.84626,-54.09684
